Time,TemperatureF,DewpointF,PressureIn,WindDirection,WindDirectionDegrees,WindSpeedMPH,WindSpeedGustMPH,Humidity,HourlyPrecipIn,Conditions,Clouds,dailyrainin,SoftwareType,DateUTC
2013-02-27 00:22:00,31.2,28.9,29.75,West,280,3.0,3.0,91,0.00,,,0.00,Wunderground v.1.15,2013-02-27 06:22:00,
2013-02-27 00:26:00,31.2,28.9,29.75,West,279,3.0,4.0,91,0.00,,,0.00,Wunderground v.1.15,2013-02-27 06:26:00,
2013-02-27 00:32:00,31.2,28.9,29.75,West,281,3.0,3.0,91,0.00,,,0.00,Wunderground v.1.15,2013-02-27 06:32:00,
2013-02-27 00:34:00,31.2,28.9,29.75,West,281,3.0,3.0,91,0.00,,,0.00,Wunderground v.1.15,2013-02-27 06:34:00,
2013-02-27 00:40:00,31.2,28.9,29.75,West,281,3.0,5.0,91,0.00,,,0.00,Wunderground v.1.15,2013-02-27 06:40:00,
2013-02-27 00:46:00,31.2,28.9,29.75,West,265,4.0,4.0,91,0.00,,,0.00,Wunderground v.1.15,2013-02-27 06:46:00,
2013-02-27 00:50:00,31.2,28.9,29.75,West,267,3.0,4.0,91,0.00,,,0.00,Wunderground v.1.15,2013-02-27 06:50:00,
2013-02-27 00:56:00,31.2,28.9,29.75,West,267,3.0,4.0,91,0.00,,,0.00,Wunderground v.1.15,2013-02-27 06:56:00,
2013-02-27 01:02:00,31.2,28.9,29.75,West,278,4.0,4.0,91,0.00,,,0.00,Wunderground v.1.15,2013-02-27 07:02:00,
2013-02-27 01:08:00,31.2,28.9,29.75,WNW,284,4.0,4.0,91,0.00,,,0.00,Wunderground v.1.15,2013-02-27 07:08:00,
2013-02-27 01:14:00,31.2,28.9,29.75,WNW,291,3.0,4.0,91,0.00,,,0.00,Wunderground v.1.15,2013-02-27 07:14:00,
2013-02-27 01:20:00,31.2,28.9,29.75,WNW,297,4.0,6.0,91,0.00,,,0.00,Wunderground v.1.15,2013-02-27 07:20:00,
2013-02-27 01:26:00,31.2,28.9,29.74,WNW,296,4.0,4.0,91,0.00,,,0.00,Wunderground v.1.15,2013-02-27 07:26:00,
2013-02-27 01:32:00,31.2,28.9,29.74,NW,309,4.0,4.0,91,0.00,,,0.00,Wunderground v.1.15,2013-02-27 07:32:00,
2013-02-27 01:38:00,31.1,28.8,29.74,WNW,294,4.0,5.0,91,0.00,,,0.00,Wunderground v.1.15,2013-02-27 07:38:00,
2013-02-27 01:44:00,31.1,28.8,29.74,NW,307,5.0,7.0,91,0.00,,,0.00,Wunderground v.1.15,2013-02-27 07:44:00,
2013-02-27 01:50:00,31.1,28.8,29.74,WNW,298,5.0,11.0,91,0.00,,,0.00,Wunderground v.1.15,2013-02-27 07:50:00,
2013-02-27 01:56:00,31.1,28.8,29.75,NW,313,5.0,9.0,91,0.00,,,0.00,Wunderground v.1.15,2013-02-27 07:56:00,
2013-02-27 02:02:00,31.1,28.8,29.74,NNW,327,5.0,8.0,91,0.00,,,0.00,Wunderground v.1.15,2013-02-27 08:02:00,
2013-02-27 02:08:00,31.1,28.8,29.74,WNW,295,5.0,10.0,91,0.00,,,0.00,Wunderground v.1.15,2013-02-27 08:08:00,
2013-02-27 02:14:00,31.0,28.7,29.74,WNW,291,6.0,6.0,91,0.00,,,0.00,Wunderground v.1.15,2013-02-27 08:14:00,
2013-02-27 02:20:00,31.0,28.7,29.73,NW,306,5.0,10.0,91,0.00,,,0.00,Wunderground v.1.15,2013-02-27 08:20:00,
2013-02-27 02:26:00,31.0,28.7,29.73,WNW,291,5.0,10.0,91,0.00,,,0.00,Wunderground v.1.15,2013-02-27 08:26:00,
2013-02-27 02:32:00,31.0,28.7,29.74,WNW,297,4.0,9.0,91,0.00,,,0.00,Wunderground v.1.15,2013-02-27 08:32:00,
2013-02-27 02:38:00,31.0,28.7,29.74,WNW,297,5.0,11.0,91,0.00,,,0.00,Wunderground v.1.15,2013-02-27 08:38:00,
2013-02-27 02:44:00,31.0,28.7,29.74,NW,307,5.0,11.0,91,0.00,,,0.00,Wunderground v.1.15,2013-02-27 08:44:00,
2013-02-27 02:50:00,31.0,28.7,29.74,WNW,300,5.0,5.0,91,0.00,,,0.00,Wunderground v.1.15,2013-02-27 08:50:00,
2013-02-27 02:56:00,31.0,28.7,29.74,WNW,283,5.0,6.0,91,0.00,,,0.00,Wunderground v.1.15,2013-02-27 08:56:00,
2013-02-27 03:02:00,31.1,28.8,29.74,WNW,299,5.0,6.0,91,0.00,,,0.00,Wunderground v.1.15,2013-02-27 09:02:00,
2013-02-27 03:08:00,31.1,28.8,29.74,WNW,292,5.0,7.0,91,0.00,,,0.00,Wunderground v.1.15,2013-02-27 09:08:00,
2013-02-27 03:14:00,31.1,28.8,29.74,WNW,300,5.0,5.0,91,0.00,,,0.00,Wunderground v.1.15,2013-02-27 09:14:00,
2013-02-27 09:56:00,30.0,28.0,29.82,WNW,290,5.0,5.0,92,0.00,,,0.00,Wunderground v.1.15,2013-02-27 15:56:00,
2013-02-27 10:02:00,30.1,28.1,29.82,WNW,291,4.0,8.0,92,0.00,,,0.00,Wunderground v.1.15,2013-02-27 16:02:00,
2013-02-27 10:08:00,30.1,27.8,29.82,West,267,5.0,9.0,91,0.00,,,0.00,Wunderground v.1.15,2013-02-27 16:08:00,
2013-02-27 10:14:00,30.1,27.8,29.82,WNW,296,5.0,5.0,91,0.00,,,0.00,Wunderground v.1.15,2013-02-27 16:14:00,
2013-02-27 10:20:00,30.0,27.7,29.82,West,276,4.0,9.0,91,0.00,,,0.00,Wunderground v.1.15,2013-02-27 16:20:00,
2013-02-27 10:26:00,30.1,27.8,29.82,NW,308,5.0,11.0,91,0.00,,,0.00,Wunderground v.1.15,2013-02-27 16:26:00,
2013-02-27 10:32:00,30.2,28.2,29.82,WNW,284,5.0,5.0,92,0.00,,,0.00,Wunderground v.1.15,2013-02-27 16:32:00,
2013-02-27 10:38:00,30.3,28.3,29.82,WNW,292,6.0,6.0,92,0.00,,,0.00,Wunderground v.1.15,2013-02-27 16:38:00,
2013-02-27 10:44:00,30.3,28.3,29.82,WSW,250,5.0,6.0,92,0.00,,,0.00,Wunderground v.1.15,2013-02-27 16:44:00,
2013-02-27 10:50:00,30.4,28.4,29.82,West,260,5.0,6.0,92,0.00,,,0.00,Wunderground v.1.15,2013-02-27 16:50:00,
2013-02-27 10:56:00,30.4,28.1,29.83,West,279,6.0,7.0,91,0.00,,,0.00,Wunderground v.1.15,2013-02-27 16:56:00,
2013-02-27 11:01:00,30.4,28.1,29.83,WNW,286,6.0,9.0,91,0.00,,,0.00,Wunderground v.1.15,2013-02-27 17:01:00,
2013-02-27 11:08:00,30.5,28.2,29.83,WSW,248,5.0,9.0,91,0.00,,,0.00,Wunderground v.1.15,2013-02-27 17:08:00,
2013-02-27 11:14:00,30.7,28.7,29.82,WNW,291,5.0,18.0,92,0.00,,,0.01,Wunderground v.1.15,2013-02-27 17:14:00,
2013-02-27 11:20:00,30.8,28.8,29.83,NW,315,7.0,7.0,92,0.00,,,0.01,Wunderground v.1.15,2013-02-27 17:20:00,
2013-02-27 11:26:00,31.0,28.7,29.83,NW,306,7.0,7.0,91,0.00,,,0.01,Wunderground v.1.15,2013-02-27 17:26:00,
2013-02-27 11:32:00,31.1,28.8,29.83,WNW,293,6.0,8.0,91,0.00,,,0.01,Wunderground v.1.15,2013-02-27 17:32:00,
2013-02-27 11:38:00,31.1,28.8,29.83,West,281,6.0,8.0,91,0.00,,,0.01,Wunderground v.1.15,2013-02-27 17:38:00,
2013-02-27 11:44:00,31.1,28.8,29.83,NW,319,6.0,10.0,91,0.00,,,0.02,Wunderground v.1.15,2013-02-27 17:44:00,
2013-02-27 11:50:00,31.1,28.8,29.83,WNW,291,6.0,7.0,91,0.00,,,0.02,Wunderground v.1.15,2013-02-27 17:50:00,
2013-02-27 11:56:00,31.2,28.9,29.83,WNW,300,6.0,9.0,91,0.00,,,0.02,Wunderground v.1.15,2013-02-27 17:56:00,
2013-02-27 12:02:00,31.3,29.0,29.83,WNW,286,5.0,9.0,91,0.00,,,0.02,Wunderground v.1.15,2013-02-27 18:02:00,
2013-02-27 12:08:00,31.4,29.1,29.83,West,264,6.0,9.0,91,0.00,,,0.03,Wunderground v.1.15,2013-02-27 18:08:00,
2013-02-27 12:14:00,31.4,29.1,29.83,WNW,300,6.0,9.0,91,0.00,,,0.03,Wunderground v.1.15,2013-02-27 18:14:00,
2013-02-27 12:19:00,31.2,28.9,29.83,WNW,298,7.0,11.0,91,0.00,,,0.03,Wunderground v.1.15,2013-02-27 18:19:00,
2013-02-27 12:26:00,31.0,28.7,29.83,West,271,8.0,9.0,91,0.00,,,0.03,Wunderground v.1.15,2013-02-27 18:26:00,
2013-02-27 12:32:00,31.0,28.7,29.83,WNW,292,8.0,8.0,91,0.00,,,0.03,Wunderground v.1.15,2013-02-27 18:32:00,
2013-02-27 12:38:00,31.0,28.7,29.83,West,267,6.0,8.0,91,0.00,,,0.03,Wunderground v.1.15,2013-02-27 18:38:00,
2013-02-27 12:44:00,31.1,28.8,29.83,NW,311,5.0,7.0,91,0.00,,,0.04,Wunderground v.1.15,2013-02-27 18:44:00,
2013-02-27 12:50:00,31.2,28.9,29.83,West,263,4.0,7.0,91,0.00,,,0.04,Wunderground v.1.15,2013-02-27 18:50:00,
2013-02-27 12:56:00,31.2,28.9,29.83,West,267,5.0,10.0,91,0.00,,,0.04,Wunderground v.1.15,2013-02-27 18:56:00,
2013-02-27 13:02:00,31.2,28.9,29.83,WNW,286,5.0,13.0,91,0.00,,,0.04,Wunderground v.1.15,2013-02-27 19:02:00,
2013-02-27 13:08:00,31.2,28.9,29.83,WNW,288,5.0,13.0,91,0.00,,,0.04,Wunderground v.1.15,2013-02-27 19:08:00,
2013-02-27 13:14:00,31.1,28.8,29.83,WSW,251,6.0,12.0,91,0.00,,,0.05,Wunderground v.1.15,2013-02-27 19:14:00,
2013-02-27 13:20:00,31.2,28.9,29.83,WNW,288,6.0,6.0,91,0.00,,,0.05,Wunderground v.1.15,2013-02-27 19:20:00,
2013-02-27 13:25:00,31.3,29.0,29.83,WNW,303,6.0,6.0,91,0.00,,,0.05,Wunderground v.1.15,2013-02-27 19:25:00,
2013-02-27 13:32:00,31.3,29.0,29.83,WNW,290,6.0,9.0,91,0.00,,,0.05,Wunderground v.1.15,2013-02-27 19:32:00,
2013-02-27 13:38:00,31.2,28.9,29.83,NNW,327,8.0,13.0,91,0.00,,,0.05,Wunderground v.1.15,2013-02-27 19:38:00,
2013-02-27 13:44:00,31.2,28.9,29.83,NW,310,7.0,9.0,91,0.00,,,0.05,Wunderground v.1.15,2013-02-27 19:44:00,
2013-02-27 13:50:00,31.1,28.5,29.83,WNW,302,6.0,6.0,90,0.00,,,0.05,Wunderground v.1.15,2013-02-27 19:50:00,
2013-02-27 13:55:00,31.1,28.8,29.83,WNW,287,5.0,9.0,91,0.00,,,0.06,Wunderground v.1.15,2013-02-27 19:55:00,
2013-02-27 14:02:00,31.0,28.4,29.83,WSW,254,7.0,11.0,90,0.00,,,0.06,Wunderground v.1.15,2013-02-27 20:02:00,
2013-02-27 14:08:00,30.8,28.2,29.83,West,272,7.0,11.0,90,0.00,,,0.06,Wunderground v.1.15,2013-02-27 20:08:00,
2013-02-27 14:14:00,30.7,28.1,29.84,WNW,295,6.0,7.0,90,0.00,,,0.06,Wunderground v.1.15,2013-02-27 20:14:00,
2013-02-27 14:20:00,30.8,28.5,29.83,NW,315,6.0,9.0,91,0.00,,,0.06,Wunderground v.1.15,2013-02-27 20:20:00,
2013-02-27 14:26:00,30.9,28.3,29.84,West,267,6.0,10.0,90,0.00,,,0.06,Wunderground v.1.15,2013-02-27 20:26:00,
2013-02-27 14:32:00,30.9,28.3,29.84,WSW,256,6.0,9.0,90,0.00,,,0.06,Wunderground v.1.15,2013-02-27 20:32:00,
2013-02-27 14:38:00,30.8,28.5,29.84,WNW,302,6.0,9.0,91,0.00,,,0.06,Wunderground v.1.15,2013-02-27 20:38:00,
2013-02-27 14:44:00,30.8,28.5,29.84,WSW,254,6.0,6.0,91,0.00,,,0.07,Wunderground v.1.15,2013-02-27 20:44:00,
2013-02-27 14:50:00,30.8,28.2,29.84,WSW,254,7.0,7.0,90,0.00,,,0.07,Wunderground v.1.15,2013-02-27 20:50:00,
2013-02-27 14:56:00,30.8,28.5,29.85,West,269,5.0,7.0,91,0.00,,,0.07,Wunderground v.1.15,2013-02-27 20:56:00,
2013-02-27 15:01:00,30.9,28.6,29.85,West,281,5.0,6.0,91,0.00,,,0.07,Wunderground v.1.15,2013-02-27 21:01:00,
2013-02-27 15:08:00,30.9,28.3,29.85,West,278,6.0,7.0,90,0.00,,,0.07,Wunderground v.1.15,2013-02-27 21:08:00,
2013-02-27 15:14:00,30.9,28.3,29.85,WSW,257,7.0,7.0,90,0.00,,,0.07,Wunderground v.1.15,2013-02-27 21:14:00,
2013-02-27 15:20:00,30.8,28.2,29.86,West,273,7.0,7.0,90,0.00,,,0.07,Wunderground v.1.15,2013-02-27 21:20:00,
2013-02-27 15:26:00,30.7,28.1,29.86,WNW,290,8.0,9.0,90,0.00,,,0.07,Wunderground v.1.15,2013-02-27 21:26:00,
2013-02-27 15:32:00,30.7,28.1,29.86,West,273,8.0,8.0,90,0.00,,,0.07,Wunderground v.1.15,2013-02-27 21:32:00,
2013-02-27 15:38:00,30.7,28.1,29.86,West,281,6.0,8.0,90,0.00,,,0.07,Wunderground v.1.15,2013-02-27 21:38:00,
2013-02-27 15:44:00,30.6,28.0,29.87,WNW,290,6.0,6.0,90,0.00,,,0.07,Wunderground v.1.15,2013-02-27 21:44:00,
2013-02-27 15:50:00,30.6,28.0,29.87,NW,306,7.0,11.0,90,0.00,,,0.07,Wunderground v.1.15,2013-02-27 21:50:00,
2013-02-27 15:56:00,30.5,27.9,29.87,West,262,6.0,8.0,90,0.00,,,0.07,Wunderground v.1.15,2013-02-27 21:56:00,
2013-02-27 16:02:00,30.5,27.9,29.88,West,268,6.0,8.0,90,0.00,,,0.07,Wunderground v.1.15,2013-02-27 22:02:00,
2013-02-27 16:08:00,30.5,27.9,29.88,WNW,298,5.0,8.0,90,0.00,,,0.08,Wunderground v.1.15,2013-02-27 22:08:00,
2013-02-27 16:14:00,30.4,27.8,29.88,West,277,5.0,11.0,90,0.00,,,0.08,Wunderground v.1.15,2013-02-27 22:14:00,
2013-02-27 16:20:00,30.3,27.7,29.88,NW,311,6.0,7.0,90,0.00,,,0.08,Wunderground v.1.15,2013-02-27 22:20:00,
2013-02-27 16:26:00,30.3,27.7,29.89,NW,309,6.0,7.0,90,0.00,,,0.08,Wunderground v.1.15,2013-02-27 22:26:00,
2013-02-27 16:32:00,30.3,27.7,29.89,WNW,300,6.0,6.0,90,0.00,,,0.08,Wunderground v.1.15,2013-02-27 22:32:00,
2013-02-27 16:38:00,30.2,27.6,29.89,West,275,5.0,9.0,90,0.00,,,0.08,Wunderground v.1.15,2013-02-27 22:38:00,
2013-02-27 16:44:00,30.1,27.5,29.89,NW,311,5.0,9.0,90,0.00,,,0.08,Wunderground v.1.15,2013-02-27 22:44:00,
2013-02-27 16:49:00,30.1,27.5,29.89,NW,317,6.0,6.0,90,0.00,,,0.08,Wunderground v.1.15,2013-02-27 22:49:00,
2013-02-27 16:56:00,30.1,27.5,29.89,NW,305,5.0,12.0,90,0.00,,,0.08,Wunderground v.1.15,2013-02-27 22:56:00,
2013-02-27 17:01:00,30.0,27.4,29.90,WNW,284,5.0,5.0,90,0.00,,,0.08,Wunderground v.1.15,2013-02-27 23:01:00,
2013-02-27 17:08:00,29.9,27.3,29.90,NW,308,5.0,9.0,90,0.00,,,0.08,Wunderground v.1.15,2013-02-27 23:08:00,
2013-02-27 17:14:00,30.0,27.4,29.90,NW,315,6.0,6.0,90,0.00,,,0.08,Wunderground v.1.15,2013-02-27 23:14:00,
2013-02-27 17:20:00,29.9,27.3,29.90,West,262,5.0,5.0,90,0.00,,,0.08,Wunderground v.1.15,2013-02-27 23:20:00,
2013-02-27 17:26:00,29.9,27.3,29.90,NW,319,5.0,6.0,90,0.00,,,0.08,Wunderground v.1.15,2013-02-27 23:26:00,
2013-02-27 17:32:00,29.8,27.2,29.91,NW,304,4.0,5.0,90,0.00,,,0.08,Wunderground v.1.15,2013-02-27 23:32:00,
2013-02-27 17:38:00,29.7,27.1,29.91,WNW,295,5.0,7.0,90,0.00,,,0.08,Wunderground v.1.15,2013-02-27 23:38:00,
2013-02-27 17:44:00,29.6,27.0,29.91,WNW,296,4.0,7.0,90,0.00,,,0.08,Wunderground v.1.15,2013-02-27 23:44:00,
2013-02-27 17:50:00,29.6,27.0,29.91,NW,310,5.0,5.0,90,0.00,,,0.08,Wunderground v.1.15,2013-02-27 23:50:00,
2013-02-27 17:56:00,29.5,26.9,29.91,WNW,303,5.0,6.0,90,0.00,,,0.08,Wunderground v.1.15,2013-02-27 23:56:00,
2013-02-27 18:02:00,29.5,26.9,29.91,West,268,5.0,5.0,90,0.00,,,0.08,Wunderground v.1.15,2013-02-28 00:02:00,
2013-02-27 18:08:00,29.4,27.1,29.91,WNW,300,4.0,6.0,91,0.00,,,0.08,Wunderground v.1.15,2013-02-28 00:08:00,
2013-02-27 18:14:00,29.4,26.8,29.92,NNW,344,4.0,12.0,90,0.00,,,0.08,Wunderground v.1.15,2013-02-28 00:14:00,
2013-02-27 18:20:00,29.4,26.8,29.92,NW,306,5.0,12.0,90,0.00,,,0.08,Wunderground v.1.15,2013-02-28 00:20:00,
2013-02-27 18:26:00,29.4,26.8,29.92,WNW,296,4.0,5.0,90,0.00,,,0.08,Wunderground v.1.15,2013-02-28 00:26:00,
2013-02-27 18:32:00,29.4,26.8,29.92,WNW,294,4.0,9.0,90,0.00,,,0.08,Wunderground v.1.15,2013-02-28 00:32:00,
2013-02-27 18:38:00,29.5,27.2,29.92,West,263,5.0,9.0,91,0.00,,,0.08,Wunderground v.1.15,2013-02-28 00:38:00,
2013-02-27 18:44:00,29.5,27.2,29.92,West,276,5.0,5.0,91,0.00,,,0.08,Wunderground v.1.15,2013-02-28 00:44:00,
2013-02-27 18:50:00,29.5,27.2,29.92,West,276,5.0,5.0,91,0.00,,,0.08,Wunderground v.1.15,2013-02-28 00:50:00,
2013-02-27 18:56:00,29.5,27.2,29.92,West,265,4.0,4.0,91,0.00,,,0.08,Wunderground v.1.15,2013-02-28 00:56:00,
2013-02-27 19:02:00,29.5,27.2,29.93,West,278,5.0,6.0,91,0.00,,,0.08,Wunderground v.1.15,2013-02-28 01:02:00,
2013-02-27 19:08:00,29.5,27.2,29.93,WNW,298,5.0,6.0,91,0.00,,,0.08,Wunderground v.1.15,2013-02-28 01:08:00,
2013-02-27 19:14:00,29.5,27.2,29.93,WNW,294,5.0,5.0,91,0.00,,,0.08,Wunderground v.1.15,2013-02-28 01:14:00,
2013-02-27 19:19:00,29.4,27.1,29.93,West,273,4.0,6.0,91,0.00,,,0.08,Wunderground v.1.15,2013-02-28 01:19:00,
2013-02-27 19:26:00,29.4,27.1,29.93,NW,309,4.0,12.0,91,0.00,,,0.08,Wunderground v.1.15,2013-02-28 01:26:00,
2013-02-27 19:32:00,29.4,27.1,29.93,WNW,283,4.0,4.0,91,0.00,,,0.08,Wunderground v.1.15,2013-02-28 01:32:00,
2013-02-27 19:38:00,29.4,27.1,29.93,NW,316,3.0,6.0,91,0.00,,,0.08,Wunderground v.1.15,2013-02-28 01:38:00,
2013-02-27 19:44:00,29.4,27.1,29.93,West,276,4.0,5.0,91,0.00,,,0.08,Wunderground v.1.15,2013-02-28 01:44:00,
2013-02-27 19:50:00,29.4,27.1,29.93,WNW,288,4.0,7.0,91,0.00,,,0.08,Wunderground v.1.15,2013-02-28 01:50:00,
2013-02-27 19:56:00,29.4,27.1,29.93,NW,307,4.0,7.0,91,0.00,,,0.08,Wunderground v.1.15,2013-02-28 01:56:00,
2013-02-27 20:02:00,29.3,27.0,29.93,WNW,288,5.0,5.0,91,0.00,,,0.08,Wunderground v.1.15,2013-02-28 02:02:00,
2013-02-27 20:08:00,29.4,27.1,29.93,West,281,5.0,5.0,91,0.00,,,0.08,Wunderground v.1.15,2013-02-28 02:08:00,
2013-02-27 20:14:00,29.3,27.0,29.93,WNW,299,4.0,7.0,91,0.00,,,0.08,Wunderground v.1.15,2013-02-28 02:14:00,
2013-02-27 20:20:00,29.4,27.1,29.94,West,275,4.0,6.0,91,0.00,,,0.08,Wunderground v.1.15,2013-02-28 02:20:00,
2013-02-27 20:26:00,29.4,27.1,29.94,WNW,298,4.0,6.0,91,0.00,,,0.08,Wunderground v.1.15,2013-02-28 02:26:00,
2013-02-27 20:32:00,29.4,27.1,29.94,WNW,290,5.0,9.0,91,0.00,,,0.08,Wunderground v.1.15,2013-02-28 02:32:00,
2013-02-27 20:38:00,29.4,27.1,29.94,NW,321,6.0,10.0,91,0.00,,,0.08,Wunderground v.1.15,2013-02-28 02:38:00,
2013-02-27 20:44:00,29.4,27.1,29.94,NW,315,6.0,9.0,91,0.00,,,0.08,Wunderground v.1.15,2013-02-28 02:44:00,
2013-02-27 20:50:00,29.4,27.1,29.94,NNW,332,6.0,9.0,91,0.00,,,0.08,Wunderground v.1.15,2013-02-28 02:50:00,
2013-02-27 20:56:00,29.3,27.0,29.94,West,276,5.0,13.0,91,0.00,,,0.08,Wunderground v.1.15,2013-02-28 02:56:00,
2013-02-27 21:02:00,29.3,27.0,29.94,WNW,287,4.0,6.0,91,0.00,,,0.08,Wunderground v.1.15,2013-02-28 03:02:00,
2013-02-27 21:08:00,29.3,26.7,29.94,WNW,298,5.0,6.0,90,0.00,,,0.08,Wunderground v.1.15,2013-02-28 03:08:00,
2013-02-27 21:14:00,29.2,26.6,29.95,NW,315,5.0,5.0,90,0.00,,,0.08,Wunderground v.1.15,2013-02-28 03:14:00,
2013-02-27 21:20:00,29.2,26.6,29.95,NW,308,4.0,6.0,90,0.00,,,0.08,Wunderground v.1.15,2013-02-28 03:20:00,
2013-02-27 21:26:00,29.1,26.5,29.95,NW,312,5.0,6.0,90,0.00,,,0.08,Wunderground v.1.15,2013-02-28 03:26:00,
2013-02-27 21:32:00,29.1,26.5,29.95,WNW,296,6.0,6.0,90,0.00,,,0.08,Wunderground v.1.15,2013-02-28 03:32:00,
2013-02-27 21:38:00,29.1,26.8,29.95,WNW,301,6.0,9.0,91,0.00,,,0.08,Wunderground v.1.15,2013-02-28 03:38:00,
2013-02-27 21:43:00,29.1,26.8,29.95,WNW,284,6.0,9.0,91,0.00,,,0.08,Wunderground v.1.15,2013-02-28 03:43:00,
2013-02-27 21:50:00,29.0,26.7,29.95,NW,315,6.0,9.0,91,0.00,,,0.08,Wunderground v.1.15,2013-02-28 03:50:00,
2013-02-27 21:55:00,29.0,26.7,29.95,NW,319,6.0,7.0,91,0.00,,,0.08,Wunderground v.1.15,2013-02-28 03:55:00,
2013-02-27 22:02:00,29.0,26.4,29.95,WNW,297,5.0,6.0,90,0.00,,,0.08,Wunderground v.1.15,2013-02-28 04:02:00,
2013-02-27 22:08:00,28.9,26.3,29.95,NW,313,5.0,6.0,90,0.00,,,0.08,Wunderground v.1.15,2013-02-28 04:08:00,
2013-02-27 22:14:00,28.8,26.2,29.95,WNW,302,5.0,5.0,90,0.00,,,0.08,Wunderground v.1.15,2013-02-28 04:14:00,
2013-02-27 22:20:00,28.8,26.2,29.95,NW,310,5.0,5.0,90,0.00,,,0.08,Wunderground v.1.15,2013-02-28 04:20:00,
2013-02-27 22:25:00,28.7,26.1,29.95,NW,304,5.0,7.0,90,0.00,,,0.08,Wunderground v.1.15,2013-02-28 04:25:00,
2013-02-27 22:32:00,28.6,26.0,29.95,NW,308,4.0,5.0,90,0.00,,,0.08,Wunderground v.1.15,2013-02-28 04:32:00,
2013-02-27 22:38:00,28.5,25.9,29.95,NW,309,6.0,6.0,90,0.00,,,0.08,Wunderground v.1.15,2013-02-28 04:38:00,
2013-02-27 22:44:00,28.4,25.8,29.95,NW,309,6.0,7.0,90,0.00,,,0.08,Wunderground v.1.15,2013-02-28 04:44:00,
2013-02-27 22:50:00,28.4,25.8,29.95,NW,304,5.0,5.0,90,0.00,,,0.08,Wunderground v.1.15,2013-02-28 04:50:00,
2013-02-27 22:56:00,28.3,25.7,29.95,NW,304,5.0,9.0,90,0.00,,,0.08,Wunderground v.1.15,2013-02-28 04:56:00,
2013-02-27 23:00:00,28.3,25.7,29.95,WNW,302,5.0,5.0,90,0.00,,,0.08,Wunderground v.1.15,2013-02-28 05:00:00,
2013-02-27 23:02:00,28.3,25.7,29.95,WNW,294,5.0,5.0,90,0.00,,,0.08,Wunderground v.1.15,2013-02-28 05:02:00,
2013-02-27 23:04:00,28.2,25.6,29.95,NW,307,5.0,5.0,90,0.00,,,0.08,Wunderground v.1.15,2013-02-28 05:04:00,
2013-02-27 23:10:00,28.2,25.6,29.95,NW,309,5.0,5.0,90,0.00,,,0.08,Wunderground v.1.15,2013-02-28 05:10:00,
2013-02-27 23:15:00,28.1,25.5,29.95,NW,313,5.0,6.0,90,0.00,,,0.08,Wunderground v.1.15,2013-02-28 05:15:00,
2013-02-27 23:22:00,28.0,25.4,29.95,WNW,303,4.0,4.0,90,0.00,,,0.08,Wunderground v.1.15,2013-02-28 05:22:00,
2013-02-27 23:28:00,27.9,25.3,29.95,NW,307,3.0,5.0,90,0.00,,,0.08,Wunderground v.1.15,2013-02-28 05:28:00,
2013-02-27 23:34:00,27.9,25.3,29.95,NW,314,4.0,4.0,90,0.00,,,0.08,Wunderground v.1.15,2013-02-28 05:34:00,
2013-02-27 23:40:00,27.8,25.2,29.95,NW,307,3.0,9.0,90,0.00,,,0.08,Wunderground v.1.15,2013-02-28 05:40:00,
2013-02-27 23:46:00,27.8,25.2,29.95,NW,310,4.0,10.0,90,0.00,,,0.08,Wunderground v.1.15,2013-02-28 05:46:00,
2013-02-27 23:52:00,27.8,25.2,29.94,NW,308,4.0,4.0,90,0.00,,,0.08,Wunderground v.1.15,2013-02-28 05:52:00,
2013-02-27 23:58:00,27.8,25.2,29.95,NW,307,4.0,5.0,90,0.00,,,0.08,Wunderground v.1.15,2013-02-28 05:58:00,